Location: Brake
(52.0154°N, 8.9197°E)
Time: 06:11:12
(UTC+00:00)

Daily predictions for brighter satellites

Satellite Brightness Start Highest point End
(mag) Time Altitude Azimuth Time Altitude Azimuth Time Altitude Azimuth
Cosmos 1536 Rocket 3.6 16:19:52 10° S 16:24:12 65° E 16:28:37 10° NNE
TIMED 4.5 16:21:08 10° NNW 16:25:30 67° ENE 16:29:51 10° SE
Cosmos 2227 Rocket 3.1 16:20:39 10° WSW 16:26:05 45° NW 16:31:33 10° NNE
ATLAS 2AS CENTAUR R/B 3.1 16:21:15 10° SW 16:29:13 88° SE 16:37:03 10° NE
Cosmos 1634 Rocket 4.0 16:24:10 10° N 16:30:25 69° ENE 16:36:40 10° SSE
PSLV R/B 4.3 16:28:39 10° S 16:32:18 63° WSW 16:36:03 10° NNW
Cosmos 1844 Rocket 4.4 16:31:58 10° ESE 16:34:31 13° E 16:37:04 10° ENE
Cosmos 1025 Rocket 3.4 16:30:53 10° SSW 16:35:12 69° WNW 16:39:35 10° N
CZ-2C R/B 3.8 16:31:34 10° ESE 16:36:19 33° ENE 16:41:18 10° N
Cosmos 2344 4.4 16:29:25 10° NW 16:37:16 46° NNE 16:47:31 10° E
H-2A R/B 2.5 16:34:01 10° SSE 16:38:04 88° WSW 16:42:18 10° NNW
Okean-O 3.9 16:35:01 10° ESE 16:38:15 20° ENE 16:41:29 10° NNE
CZ-4B R/B 3.0 16:36:04 10° NE 16:38:25 17° E 16:40:43 10° SE
H-2A R/B 3.1 16:35:34 10° ESE 16:39:22 22° ENE 16:43:14 10° N
Cosmos 773 Rocket 3.9 16:35:08 10° NNW 16:40:19 68° ENE 16:45:26 10° SE
SeaSat 1 3.3 16:36:06 10° NNE 16:40:51 49° NW 16:45:36 10° WSW
Okean O Rocket 1.6 16:36:31 10° SSE 16:40:56 70° ENE 16:45:21 10° N
YAOGAN 6 3.8 16:39:22 10° S 16:42:48 47° W 16:46:19 10° NNW
SMAP 3.1 16:38:18 10° SSE 16:42:58 88° WSW 16:47:39 10° NNW
Cosmos 1626 2.1 16:39:55 10° S 16:43:35 67° E 16:47:16 10° NNE
CZ-4B R/B 3.3 16:39:28 10° SSE 16:45:02 88° ENE 16:50:44 10° NNW
SL-24 R/B 4.2 16:41:10 10° SSE 16:45:31 85° ENE 16:50:16 10° NNW
Cosmos 1603 4.3 16:43:45 10° NW 16:49:24 65° WSW 16:55:04 10° SSE
AQUARIUS 4.2 16:45:23 10° SSE 16:49:53 86° WSW 16:54:25 10° NNW
Meteor 2-10 Rocket 4.0 16:44:42 10° N 16:50:01 42° ENE 16:55:06 10° SE
Cosmos 2297 Rocket 3.7 16:45:48 10° WSW 16:50:44 30° NW 16:55:41 10° NNE
OPS 8737 4.2 16:52:11 10° NW 16:55:14 81° NE 16:59:01 10° SE
Cosmos 1606 Rocket 3.5 16:51:01 10° N 16:55:25 69° ENE 16:59:48 10° SSE
H-2A R/B 2.1 16:52:38 10° NNE 16:57:08 67° ESE 17:01:29 10° S
CZ-2D R/B 3.7 16:54:05 10° SE 16:57:41 39° ENE 17:01:17 10° N
USA 234 3.5 16:52:59 11° ENE 16:59:12 58° N 17:05:37 10° WNW
YAOGAN 1 3.4 16:56:47 10° ESE 17:00:26 27° ENE 17:04:06 10° N
Cosmos 1892 Rocket 4.2 16:56:46 10° SSE 17:00:42 34° E 17:04:38 10° NNE
CZ-4C R/B 3.1 16:57:56 10° N 17:01:04 66° WNW 17:04:11 10° SSW
ATLAS 5 CENTAUR R/B 1.5 16:58:05 10° SSW 17:02:07 67° SE 17:06:04 14° NE
FengYun 1-2 T 4.4 16:57:02 10° SSE 17:02:37 83° WSW 17:08:17 10° NNW
Tsikada Rocket 4.4 16:58:08 10° SSW 17:04:24 68° WNW 17:10:40 10° N
SL-14 R/B 3.2 17:02:12 10° S 17:06:04 89° E 17:10:01 10° N
Helios 1A Rocket 4.0 17:02:53 10° ESE 17:06:17 25° ENE 17:09:42 10° N
MOS 1 Rocket 4.0 17:02:38 10° NNE 17:06:24 28° E 17:10:05 10° SSE
ATLAS 3B R/B 4.2 17:00:50 10° NW 17:07:14 41° WSW 17:13:51 10° S
Cosmos 2228 3.0 17:03:08 10° NNW 17:07:24 84° W 17:11:42 10° S
RESURS DK-1 2.6 17:03:31 10° SW 17:07:38 69° NW 17:11:48 10° NNE
Cosmos 2142 Rocket 4.5 17:03:10 10° N 17:09:23 90° NW 17:15:32 10° S
NOSS 7 (E) 4.2 17:06:50 10° SW 17:10:23 72° SE 17:12:25 20° NE
SKYMED 2 4.0 17:08:18 10° NNE 17:12:26 40° E 17:16:31 10° SSE
Cosmos 1538 Rocket 3.9 17:08:49 10° NNW 17:14:01 75° ENE 17:19:11 10° SSE
Aureole 3 3.8 17:10:59 10° N 17:14:16 28° ENE 17:17:07 10° SE
Meteor 2-5 Rocket 3.7 17:09:30 10° SSW 17:15:04 88° W 17:20:39 10° NNE
CZ-4C R/B 2.7 17:10:24 10° WSW 17:15:35 56° NW 17:21:18 13° NE
CZ-3B R/B 1.2 17:14:09 10° WNW 17:16:17 76° NNE 17:20:09 14° ESE
SJ 16-02 2.6 17:14:35 10° SSE 17:17:58 22° E 17:18:57 20° E
Nadezhda 4 Rocket 4.4 17:13:44 10° SSE 17:19:29 40° E 17:25:13 10° NNE
Cosmos 1777 Rocket 4.2 17:16:02 10° S 17:21:08 54° ESE 17:26:00 12° NNE
Cosmos 2263 Rocket 2.3 17:17:21 10° SW 17:23:03 79° WNW 17:28:45 10° NNE
Cosmos 1455 2.6 17:21:18 10° N 17:24:54 39° ENE 17:28:30 10° SE
Cosmos 2058 Rocket 3.0 17:22:21 10° N 17:26:52 72° ENE 17:31:22 10° SSE
Cosmos 1354 Rocket 4.3 17:22:17 10° SSW 17:27:36 70° WNW 17:32:58 10° NNE
Cosmos 1300 4.1 17:25:28 10° NNW 17:29:05 41° W 17:32:41 10° SSW
COSMOS 2406 4.2 17:25:38 10° NNW 17:30:37 28° NE 17:32:43 23° ENE
GENESIS II 4.4 17:33:08 10° SW 17:37:09 72° NW 17:39:28 24° NE
ARGOS 3.4 17:33:42 10° SE 17:38:46 45° ENE 17:43:52 10° N
Lacrosse 5 2.0 17:35:45 10° WNW 17:40:48 75° SW 17:45:00 15° SE
NOSS 3-1 (C) 4.0 17:33:54 10° NW 17:40:52 60° NE 17:47:11 18° ESE
CREW DRAGON DEMO-1 DEB 3.0 17:38:16 10° W 17:41:07 60° SSW 17:41:52 41° SE
Okean 1-7 Rocket 3.6 17:37:42 10° S 17:42:10 59° E 17:46:41 10° NNE
Cosmos 1726 Rocket 4.3 17:38:06 10° NNW 17:42:21 54° W 17:46:37 10° S
ERS-2 2.3 17:42:03 34° NE 17:43:10 47° ESE 17:46:41 10° S
CZ-2C R/B 3.9 17:45:49 23° ESE 17:45:49 23° ESE 17:49:07 10° SE
ISS -1.8 17:42:48 10° S 17:45:00 18° SSE 17:45:00 18° SSE
PSLV R/B 4.2 17:43:31 26° NE 17:45:30 45° E 17:49:32 10° S
Cosmos 1939 Rocket 4.0 17:41:58 10° S 17:45:57 47° W 17:49:56 10° NNW
CSL-04 Debris 4.2 17:43:36 10° SE 17:48:50 54° ENE 17:54:05 10° N
Meteor 1-24 Rocket 4.1 17:43:59 10° SSW 17:49:15 61° WNW 17:54:32 10° N
COSMOS 2455 2.8 17:44:27 10° SSW 17:50:24 65° ESE 17:54:02 25° NE
Cosmos 1626 Rocket 3.9 17:49:18 10° SSE 17:53:25 42° E 17:54:01 39° ENE
Cosmos 1833 Rocket 3.4 17:48:48 10° NNW 17:53:49 32° NE 17:54:41 31° ENE
Cosmos 1844 4.1 17:50:13 10° S 17:55:28 41° ESE 17:57:10 33° ENE
Cosmos 2082 Rocket 3.4 17:51:00 10° NNW 17:55:36 24° NE 17:55:56 24° NE
Cosmos 2026 Rocket 4.4 17:51:05 10° SSE 17:56:36 37° E 18:02:12 10° NNE
IRS-1C Rocket 4.4 17:51:30 10° S 17:56:44 70° WSW 18:02:00 10° NNW
USA 281 4.2 17:56:41 24° NE 17:57:40 25° NE 18:02:46 10° NNW
USA 229 DEB 4.0 17:50:49 10° NW 17:57:51 58° NE 18:01:49 29° E
USA 229 4.0 17:50:55 10° NW 17:57:57 57° NE 18:01:52 29° E
CZ-4 R/B 1.4 17:54:03 10° SSE 17:58:10 81° WSW 18:02:13 10° NNW
COSMO-SKYMED 1 2.7 17:56:18 10° N 18:00:39 74° WNW 18:04:58 10° SSW
NOSS 3-4 (A) 4.5 17:57:37 10° W 18:03:16 37° NNW 18:07:06 21° NE
NOSS 3-4 (C) 4.5 17:57:47 10° W 18:03:25 38° NNW 18:07:15 21° NE
USA 267 4.4 18:04:12 23° ESE 18:04:33 23° SE 18:09:34 10° S
SL-08 RB Rocket 3.8 18:05:15 48° E 18:05:35 49° ENE 18:09:56 10° N
Ariane Rocket 4.3 18:10:03 24° NNE 18:10:03 24° NNE 18:12:44 10° N
CZ-4B R/B 2.7 18:08:14 14° N 18:10:49 40° WNW 18:13:58 10° SW
Cosmos 2227 Rocket 4.4 18:08:11 10° WNW 18:11:40 16° NNW 18:15:09 10° NNE
NOSS 3-1 (A) 4.0 18:06:25 10° NW 18:13:25 61° NE 18:16:57 35° E
Okean-O 3.0 18:09:55 10° S 18:14:19 65° WSW 18:18:46 10° NNW
Cosmos 923 Rocket 4.1 18:10:21 10° NNW 18:15:43 79° WSW 18:21:02 10° SSE
CZ-2C R/B 4.1 18:10:50 10° S 18:15:59 50° W 18:21:27 10° NNW
Cosmos 1844 Rocket 2.6 18:11:46 10° SSW 18:17:23 70° ESE 18:19:25 40° NE
H-2A R/B 2.2 18:13:19 10° S 18:18:18 72° WSW 18:23:27 10° NNW
Meteor 1-21 Rocket 4.0 18:14:30 10° S 18:20:01 78° E 18:25:18 12° NNE
Aureole 2 Rocket 3.5 18:17:35 10° SSW 18:19:28 34° SW 18:19:28 34° SW
ATLAS 2AS CENTAUR R/B 3.8 18:13:32 10° W 18:21:02 44° NNW 18:25:30 23° NE
Cosmos 158 Rocket 4.4 18:15:48 10° NNW 18:21:05 67° WSW 18:26:25 10° SSE
Meteor 2-8 Rocket 4.3 18:15:15 10° N 18:21:21 75° ENE 18:27:27 10° SSE
Meteor 2-15 4.4 18:15:56 10° N 18:22:01 56° ENE 18:24:41 33° SE
Cosmos 2195 Rocket 4.4 18:15:53 10° S 18:22:06 64° E 18:28:22 10° NNE
Cosmos 1680 Rocket 3.4 18:17:50 10° NNW 18:23:08 87° WSW 18:26:36 22° SSE
SAR-Lupe-4 4.2 18:31:28 55° WSW 18:31:28 55° WSW 18:34:30 10° SSW
Cosmos 1627 Rocket 4.4 18:25:51 10° S 18:31:57 67° E 18:38:11 10° NNE
Cosmos 2098 Rocket 4.3 18:26:25 10° SSE 18:33:23 58° E 18:40:39 10° NNE
Cosmos 1818 3.4 18:28:53 10° SSW 18:34:18 76° SE 18:34:53 68° ENE
YAOGAN 1 3.8 18:32:16 10° S 18:36:23 41° W 18:40:31 10° NNW
Cosmos 1428 Rocket 4.4 18:30:45 10° S 18:36:58 68° E 18:43:15 10° NNE
CSL-04 Rocket 3.9 18:34:46 10° S 18:40:09 70° WSW 18:45:39 10° NNW
Helios 1A Rocket 4.1 18:37:18 10° S 18:41:15 43° W 18:45:14 10° NNW
USA 234 3.2 18:40:19 54° E 18:41:58 79° NNE 18:48:32 10° WNW
MOS 1 Rocket 4.5 18:40:55 11° N 18:44:47 37° WNW 18:48:43 10° SW
Iridium 4 Rocket 3.7 18:39:27 10° N 18:45:16 78° W 18:50:37 10° S
Cosmos 1092 Rocket 3.9 18:40:54 10° S 18:47:06 83° W 18:53:18 10° N
ATLAS 5 CENTAUR R/B 2.9 18:43:12 10° W 18:47:07 33° NNW 18:47:38 32° N
Cosmos 1812 Rocket 4.0 18:44:05 10° NNW 18:48:27 60° W 18:48:54 56° SW
Meteor 2-15 Rocket 4.3 18:45:04 10° N 18:51:11 72° ENE 18:51:11 72° ENE
Cosmos 2344 4.2 18:44:00 10° NW 18:52:59 90° NE 18:59:35 32° SE
SL-24 R/B - RUBIN 2 4.5 18:46:41 10° SW 18:53:26 86° NW 18:54:49 59° NE
SJ 16-02 2.1 18:51:55 10° SW 18:55:59 51° WNW 18:55:59 51° WNW
MetOp-A 4.5 19:04:29 57° NNW 19:04:29 57° NNW 19:08:43 10° NNW
CZ-4C R/B 3.7 19:00:16 10° WNW 19:05:26 31° N 19:06:30 30° N
Cosmos 2263 Rocket 4.2 19:03:28 10° W 19:07:54 23° NW 19:10:38 16° N
COSMOS 2406 3.4 19:09:45 10° NNW 19:14:49 67° NW 19:14:49 67° NW
Lacrosse 5 3.9 19:19:27 10° W 19:23:08 20° SW 19:24:15 19° SW
CZ-2C R/B 3.7 19:27:19 40° SW 19:27:19 40° SW 19:30:53 10° SSW
Cosmos 1553 Rocket 4.4 19:29:18 10° NNW 19:35:36 60° W 19:36:14 57° WSW
COSMOS 2455 3.9 19:31:09 10° WSW 19:36:44 38° NW 19:37:13 37° NNW
Cosmos 1833 Rocket 3.7 19:32:36 10° NW 19:36:24 42° NW 19:36:24 42° NW
Cosmos 2082 Rocket 3.6 19:34:47 10° NNW 19:37:47 32° NNW 19:37:47 32° NNW
USA 281 3.9 19:43:33 44° NNW 19:43:33 44° NNW 19:47:53 10° NNW
USA 267 4.4 19:51:35 32° SW 19:51:35 32° SW 19:54:56 10° SW
USA 229 DEB 4.3 19:41:55 10° NW 19:48:57 54° SW 19:49:18 54° SW
USA 229 4.3 19:42:01 10° NW 19:49:03 55° SW 19:49:21 54° SW
Cosmos 1844 Rocket 4.4 19:56:49 10° WSW 20:01:07 29° NW 20:01:07 29° NW
ATLAS 2AS CENTAUR R/B 4.1 20:06:50 10° WNW 20:12:56 34° N 20:12:56 34° N
